Location: *
(43.9905°S, 176.4941°W)
Time: 05:51:20
(UTC+00:00)

Daily predictions for brighter satellites

Satellite Brightness Start Highest point End
(mag) Time Altitude Azimuth Time Altitude Azimuth Time Altitude Azimuth
Iridium 4 Rocket 3.8 07:42:11 10° S 07:47:44 78° E 07:53:35 10° N
Aureole 3 Rocket 3.9 07:43:01 10° N 07:48:00 75° E 07:55:12 10° S
Okean 2 3.7 07:44:52 10° SSW 07:49:07 75° W 07:53:18 10° N
Cosmos 1437 Rocket 4.3 07:50:01 10° SSE 07:53:05 21° ESE 07:56:10 10° ENE
Cosmos 1300 Rocket 3.7 07:49:35 10° N 07:53:54 61° E 07:58:18 10° SSE
Cosmos 2278 Rocket 2.2 07:51:42 10° NNW 07:57:20 69° ENE 08:03:02 10° SSE
Cosmos 2151 Rocket 3.7 07:53:08 10° N 07:57:31 61° E 08:01:59 10° SSE
Cosmos 1992 Rocket 4.2 07:52:49 10° NNW 07:58:05 83° WSW 08:03:26 10° SSE
Cosmos 1745 Rocket 4.1 07:54:08 10° S 08:00:32 89° W 08:06:55 10° N
Okean 1 Rocket 4.0 07:59:05 10° NNE 08:03:00 31° E 08:06:59 10° SSE
Cosmos 44 Rocket 3.9 07:58:12 10° NW 08:03:08 67° SW 08:08:14 10° SSE
Cosmos 2285 Rocket 4.2 08:03:02 10° SSW 08:09:28 64° ESE 08:15:53 10° NNE
Resurs 01 Rocket 3.2 08:06:28 10° SE 08:09:41 19° E 08:12:40 11° NE
Cosmos 1544 3.1 08:10:19 10° N 08:14:02 80° E 08:17:49 10° S
Mayak 0.7 08:11:37 10° ENE 08:14:20 17° ESE 08:17:03 10° SSE
USA 267 4.1 08:10:44 10° ESE 08:16:09 26° NE 08:21:30 10° N
USA 129 2.6 08:18:30 13° SE 08:18:30 13° SE 08:19:05 10° SSE
Cosmos 1184 Rocket 4.1 08:17:05 13° NE 08:19:26 24° E 08:22:15 10° SE
COSMOS 2406 3.9 08:13:53 10° SW 08:19:31 53° WNW 08:25:07 10° N
H-2A R/B 2.3 08:14:56 10° SSE 08:20:25 60° E 08:25:49 10° N
Thor Agena Rocket 3.9 08:18:13 11° NNE 08:23:13 56° ESE 08:28:29 10° S
Okean 2 Rocket 4.4 08:21:28 10° NNW 08:25:50 44° WSW 08:30:16 10° S
SPOT 3 Rocket 3.7 08:21:11 10° SSE 08:26:23 56° E 08:31:33 10° N
ATLAS CENTAUR R/B 2.3 08:25:48 10° SW 08:30:02 48° WNW 08:34:14 12° NNE
Cosmos 1833 Rocket 2.8 08:25:57 10° SSW 08:31:40 81° WNW 08:36:47 13° NNE
GPS 2-04 Rocket1 3.9 08:32:09 10° NNW 08:34:29 17° N 08:34:57 17° NNE
Cosmos 921 Rocket 3.3 08:30:52 10° NNW 08:35:24 78° WSW 08:40:02 10° SSE
ARGOS 3.2 08:32:45 10° SSE 08:38:17 74° ENE 08:43:44 10° N
Meteor 2-8 Rocket 4.5 08:33:15 10° N 08:39:22 88° ENE 08:45:38 10° S
CENTAUR R/B 3.4 08:32:18 10° NW 08:40:14 64° SW 08:47:06 10° SSE
BREEZE-M DEB (TANK) 3.5 08:46:06 10° SW 08:48:04 32° SSE 08:51:21 10° E
Cosmos 1707 2.7 08:44:36 10° S 08:48:37 88° W 08:51:34 17° N
Cosmos 2184 Rocket 4.4 08:48:40 10° S 08:54:55 52° ESE 08:59:21 19° NNE
Cosmos 1025 Rocket 4.3 08:50:52 10° SSW 08:54:57 38° W 08:59:00 10° NNW
Okean 1-7 Rocket 4.3 08:51:49 10° S 08:56:13 41° ESE 08:58:46 22° NE
Cosmos 2297 3.7 08:52:50 10° NNW 08:58:24 66° ENE 09:04:03 10° SSE
Cosmos 1805 4.4 08:58:10 23° NE 08:59:31 28° E 09:02:57 10° SSE
Cosmos 2315 Rocket 4.4 08:53:26 10° NNW 08:59:38 67° W 09:05:55 10° S
Cosmos 1943 Rocket 3.3 08:58:17 20° NE 09:00:07 23° ENE 09:04:24 10° SE
Cosmos 489 Rocket 4.5 08:57:09 10° N 09:03:27 73° ENE 09:09:48 10° SSE
Cosmos 2082 Rocket 2.4 08:58:03 10° SSW 09:03:47 68° WNW 09:07:57 19° N
SJ-6B 4.4 09:02:13 10° S 09:05:43 34° WSW 09:09:11 10° NW
SL-08 RB Rocket 4.0 09:03:30 10° S 09:08:04 70° WSW 09:12:32 10° NNW
CZ-2C R/B 3.5 09:03:31 10° S 09:09:17 74° WSW 09:14:41 10° NNW
DEBRIS 2.9 09:08:14 10° WNW 09:12:16 53° SSW 09:14:24 10° ESE
Meteor 1-24 Rocket 4.4 09:12:28 10° S 09:18:21 48° ESE 09:21:42 25° NE
ATLAS 3B R/B 3.9 09:11:57 10° WNW 09:19:01 48° SW 09:26:13 10° SSE
ATLAS 5 CENTAUR R/B 4.4 09:25:19 10° SSW 09:28:54 16° SSE 09:32:13 10° ESE
Cosmos 1437 Rocket 4.4 09:25:57 10° SSW 09:29:21 28° W 09:32:05 14° NNW
MetOp-A 4.5 09:24:34 10° S 09:29:59 67° WSW 09:35:19 10° NNW
SPOT 1/Viking Rocket 4.4 09:25:31 10° SSE 09:30:14 33° E 09:31:47 28° NE
Aureole 3 4.3 09:28:52 26° NNE 09:32:04 56° E 09:36:56 10° SSE
Cosmos 1455 Rocket 3.0 09:31:31 30° N 09:33:45 78° E 09:38:17 10° S
Nimbus 7 Rocket 4.5 09:30:51 27° NNE 09:34:23 76° ESE 09:40:31 10° SSW
ERBS 2.2 09:35:07 39° NNW 09:36:12 64° NE 09:39:40 10° SE
Cosmos 468 Rocket 4.5 09:35:41 31° NNE 09:37:37 44° ENE 09:42:43 10° SSE
Cosmos 1674 2.6 09:35:07 10° S 09:38:59 87° E 09:40:07 44° N
SeaSat 1 2.4 09:34:05 10° SSE 09:39:05 74° ENE 09:42:23 22° NNW
Spot 2 Rocket 3.5 09:34:16 10° SSE 09:39:27 75° ENE 09:42:14 28° N
USA 32 4.3 09:37:37 10° S 09:42:51 54° E 09:44:58 33° NE
SL-14 R/B 4.2 09:40:12 10° S 09:43:48 33° ESE 09:44:31 31° E
Cosmos 1544 Rocket 3.5 09:43:00 36° N 09:44:47 80° E 09:49:17 10° S
Cosmos 1271 Rocket 3.9 09:42:21 10° S 09:46:01 32° ESE 09:46:50 29° E
Resurs 01 Rocket 2.7 09:42:05 10° S 09:46:24 45° WSW 09:50:14 12° NW
Mayak -0.5 09:47:46 29° NNW 09:49:32 47° W 09:53:37 10° SSW
Cosmos 1626 Rocket 3.9 09:45:16 10° S 09:49:39 53° ESE 09:50:52 40° NE
deb Kosmos-1763 4.1 09:48:45 10° SSW 09:52:30 74° WNW 09:53:12 55° N
Landsat 7 3.9 09:48:50 10° SSE 09:53:39 60° E 09:55:10 40° NNE
Cosmos 1626 3.0 09:50:19 10° S 09:53:53 36° ESE 09:54:19 35° E
Cosmos 1892 Rocket 4.3 09:49:53 10° SSW 09:54:08 46° W 09:56:04 28° NNW
SJ 16-02 2.0 09:51:34 10° S 09:55:53 45° ESE 09:57:10 35° ENE
Cosmos 2369 Rocket 2.3 09:54:23 34° N 09:56:45 57° ENE 10:02:25 10° SSE
Meteor 2-5 Rocket 4.1 09:51:42 10° SSW 09:57:39 65° W 10:00:50 28° NNW
H-2A R/B 4.5 09:55:15 10° SSW 09:59:21 22° WSW 10:03:26 10° WNW
USA 267 3.2 09:53:00 10° SE 09:59:39 89° SW 10:06:16 10° NW
Nadezhda 1 Rocket 4.1 09:58:07 23° NNW 10:02:08 72° W 10:08:24 10° S
Genesis I 3.4 10:03:18 49° E 10:03:18 49° E 10:06:42 10° SE
SPOT 5 3.3 09:59:26 10° SSE 10:04:35 49° E 10:05:51 40° NE
Cosmos 1818 3.6 09:59:57 10° SSW 10:05:24 75° SE 10:07:31 38° NE
Cosmos 1733 3.3 10:05:19 50° NNW 10:06:15 75° W 10:10:14 10° S
Cosmos 1766 4.3 10:08:34 26° NW 10:10:15 40° WSW 10:14:01 10° S
COSMOS 2487 4.3 10:08:44 10° S 10:11:27 20° ESE 10:11:55 20° ESE
Cosmos 1937 Rocket 3.7 10:06:13 10° SSW 10:11:28 62° ESE 10:13:14 40° NE
SL-27 R/B 2.6 10:08:22 10° SSW 10:11:46 59° WNW 10:11:47 59° WNW
Cosmos 1295 Rocket 4.4 10:05:44 10° S 10:11:56 88° W 10:14:35 37° N
CARTOSAT-1 3.6 10:08:28 10° SSE 10:12:50 60° E 10:13:30 53° NE
Cosmos 1758 3.3 10:16:35 60° ENE 10:16:54 63° E 10:20:55 10° SSE
Cosmos 1470 2.7 10:18:25 63° NE 10:18:45 67° E 10:22:48 10° SSE
Cosmos 2084 3.6 10:19:20 10° SW 10:23:47 70° SE 10:24:48 50° ENE
Cosmos 2366 rocket 4.3 10:22:02 10° S 10:28:23 57° ESE 10:30:45 37° NE
Terra 1.9 10:23:53 10° SSE 10:28:41 59° E 10:29:29 51° NE
Cosmos 990 Rocket 4.1 10:27:42 10° SSW 10:32:53 66° WNW 10:34:12 48° NNW
Cosmos 1656 Rocket 3.9 10:32:27 44° NE 10:33:35 51° ENE 10:39:08 10° SE
USA 234 3.3 10:29:26 25° ENE 10:33:36 78° SE 10:40:15 10° SW
Cosmos 2218 Rocket 4.1 10:28:00 10° S 10:34:22 67° E 10:36:37 41° NNE
Cosmos 1763 Rocket 3.6 10:33:26 36° NNW 10:35:40 75° WSW 10:41:03 10° SSE
Cosmos 1898 Rocket 3.7 10:30:59 10° SSW 10:36:09 60° WNW 10:37:28 45° NNW
IGS 5A 4.3 10:32:14 10° S 10:36:17 46° WSW 10:37:41 33° WNW
Cosmos 2341 Rocket 4.1 10:31:15 10° SSW 10:37:31 73° W 10:39:57 39° NNW
Cosmos 858 Rocket 4.5 10:34:02 10° SSW 10:39:19 75° WNW 10:40:34 52° N
Cosmos 1726 Rocket 4.3 10:41:12 39° E 10:41:23 39° E 10:45:33 10° SSE
Cosmos 1953 Rocket 4.3 10:38:13 10° S 10:42:28 40° ESE 10:43:02 38° E
Helios 1B rocket 2.3 10:42:11 72° NNW 10:42:33 81° WNW 10:46:45 10° SSW
Cosmos 2228 3.6 10:42:21 43° E 10:42:33 44° E 10:46:47 10° SSE
CZ-3 Stage 3 4.3 10:38:05 26° NNW 10:42:53 41° NNE 11:18:26 10° E
Cosmos 1943 Rocket 2.8 10:39:44 20° NW 10:43:27 53° WSW 10:48:54 10° SSE
Cosmos 1602 Rocket 4.1 10:41:12 10° SSW 10:45:27 48° W 10:46:11 43° NW
Cosmos 2263 4.2 10:45:35 36° NNW 10:48:01 80° WSW 10:53:47 10° SSE
ERS-1 Rocket 3.5 10:43:48 10° S 10:48:48 55° WSW 10:50:53 33° NW
Meteor 2-10 4.5 10:52:00 41° ENE 10:52:48 45° E 10:57:43 10° SSE
Cosmos 1726 3.1 10:54:34 37° ESE 10:54:34 37° ESE 10:57:34 10° SSE
Cosmos 1758 Rocket 3.4 10:50:29 10° S 10:55:01 90° SSE 10:55:31 71° N
Cosmos 1242 Rocket 3.1 10:54:06 10° SSW 10:57:36 51° W 10:57:36 51° W
Cosmos 1356 4.2 10:58:57 46° WSW 10:58:57 46° WSW 11:02:15 10° S
Cosmos 841 Rocket 3.5 10:58:54 48° NW 11:00:22 79° WSW 11:05:39 10° SSE
CZ-4 R/B 3.9 10:59:36 57° N 11:00:35 77° WNW 11:05:39 10° SSW
Cosmos 1953 2.4 11:00:32 69° WNW 11:00:47 72° W 11:04:56 10° S
SL-8 R/B 4.2 11:04:46 44° ENE 11:04:46 44° ENE 11:08:30 10° ESE
Cosmos 2208 Rocket 4.5 11:03:34 34° NW 11:05:44 59° WSW 11:11:04 10° SSE
Cosmos 220 Rocket 3.8 11:06:32 77° NE 11:06:37 77° ENE 11:10:59 10° SSE
Nadezhda 3 Rocket 4.5 11:05:55 38° NE 11:07:43 48° E 11:13:46 10° SSE
Cosmos 2298 Rocket 4.0 11:03:27 10° SSW 11:08:53 86° ESE 11:10:04 56° NNE
Cosmos 2181 Rocket 4.5 11:07:46 32° NW 11:10:38 56° WSW 11:17:04 10° S
USA 229 DEB 4.4 11:09:02 37° NE 11:10:44 42° ENE 11:17:32 10° SE
USA 229 4.4 11:09:08 37° NE 11:10:49 41° ENE 11:17:38 10° SE
Lacrosse 4 Rocket 3.6 11:12:22 17° E 11:12:22 17° E 11:14:32 10° ESE
Meteor 1-16 Rocket 4.2 11:10:05 52° N 11:11:31 77° E 11:17:11 10° SSE
Aureole 2 Rocket 4.1 11:12:46 25° S 11:12:46 25° S 11:14:12 10° S
ATLAS 5 CENTAUR R/B 2.4 11:09:34 10° SSW 11:15:00 55° SE 11:16:44 36° ENE
Meteor 1-29 3.9 11:16:07 43° WSW 11:16:07 43° WSW 11:19:00 10° SSW
Cosmos 1867 3.9 11:16:34 33° WNW 11:18:57 63° SW 11:24:21 10° SSE
Cosmos 1703 3.5 11:16:08 10° S 11:20:04 61° ESE 11:20:04 61° ESE
Cosmos 1626 4.5 11:26:33 10° SW 11:28:48 15° W 11:28:53 15° W
Cosmos 372 Rocket 4.0 11:24:38 10° SSW 11:29:55 70° WNW 11:30:43 59° NNW
Meteor 1-11 4.3 11:27:42 10° S 11:33:30 73° E 11:35:05 48° NNE
SL-24 R/B - RUBIN 2 3.7 11:29:32 10° SW 11:33:34 56° W 11:33:34 56° W
SJ 16-02 3.3 11:31:05 10° SW 11:34:06 18° W 11:34:09 18° W
Cosmos 1328 3.8 11:30:32 10° S 11:34:26 78° SW 11:34:26 78° SW
Helios 1A 3.8 11:30:59 10° SSE 11:34:50 38° E 11:34:50 38° E
Timation 2 Rocket 4.0 11:29:19 10° SSW 11:36:02 89° NW 11:38:11 45° NNE
Cosmos 2058 Rocket 2.9 11:37:39 76° NW 11:37:54 80° W 11:42:22 10° S
Cosmos 540 Rocket 4.3 11:36:35 31° WNW 11:38:29 44° WSW 11:43:29 10° S
Cosmos 1607 4.3 11:34:42 10° SSW 11:41:02 62° SE 11:44:32 27° NE
Cosmos 2369 Rocket 4.1 11:36:26 10° WNW 11:41:10 26° SW 11:45:56 10° S
COSMOS 2487 4.4 11:43:35 10° SW 11:45:29 22° WSW 11:45:29 22° WSW
ISS -1.4 11:51:15 18° ESE 11:51:15 18° ESE 11:52:21 10° ESE
ALOS 2 3.1 11:46:02 10° SSE 11:50:22 48° E 11:50:36 47° ENE
PSLV R/B 4.2 11:50:05 48° WNW 11:50:30 50° W 11:55:14 10° SSW
Cosmos 1821 Rocket 3.9 11:47:21 10° S 11:53:33 83° W 11:55:20 49° N
